FW7008 Weather Reports


time (UTC)temp
F
wind
direction
speed
knots
gust
knots
rain 1hr
in
rain 24hr
in
rain mn
in
humidity
%
barometer
mb
20260831225621 78 215 7.0 7.8 0.00 0.00 0.00 79 1012.9
20260831225116 78 217 7.8 9.6 0.00 0.00 0.00 77 1012.9
20260831224611 77 284 9.6 12.2 0.00 0.00 0.00 79 1012.9
20260831224101 77 217 8.7 9.6 0.00 0.00 0.00 79 1013.2
20260831223557 77 235 7.0 11.3 0.00 0.00 0.00 79 1012.9
20260831223052 78 215 8.7 9.6 0.00 0.00 0.00 78 1012.9
20260831222548 78 216 7.8 9.6 0.00 0.00 0.00 76 1013.2
20260831222048 77 298 7.0 7.8 0.00 0.00 0.00 78 1013.5
20260831221545 77 239 8.7 12.2 0.00 0.00 0.00 76 1013.5
20260831221044 78 243 7.8 9.6 0.00 0.00 0.00 77 1013.2
20260831220544 78 162 6.1 7.0 0.00 0.00 0.00 77 1013.5
20260831220040 77 241 6.1 7.8 0.00 0.00 0.00 79 1013.5
20260831215536 77 236 7.8 8.7 0.00 0.00 0.00 77 1013.5
20260831215031 77 239 7.8 8.7 0.00 0.00 0.00 79 1013.5
20260831214529 77 230 5.2 7.8 0.00 0.00 0.00 77 1013.5
20260831214024 77 210 10.4 12.2 0.00 0.00 0.00 77 1013.5
20260831213521 78 263 5.2 8.7 0.00 0.00 0.00 77 1013.5
20260831213016 78 309 7.0 9.6 0.00 0.00 0.00 76 1013.5
20260831212512 77 236 8.7 11.3 0.00 0.00 0.00 77 1013.5
20260831212007 78 242 7.0 7.8 0.00 0.00 0.00 75 1013.9
20260831211502 78 235 7.8 12.2 0.00 0.00 0.00 76 1013.9
20260831211000 77 260 7.8 8.7 0.00 0.00 0.00 77 1013.9
20260831210456 78 274 7.8 8.7 0.00 0.00 0.00 75 1013.9
20260831205952 78 240 6.1 8.7 0.00 0.00 0.00 76 1013.9
20260831205447 78 243 7.8 9.6 0.00 0.00 0.00 75 1013.9
20260831204943 78 224 3.5 6.1 0.00 0.00 0.00 76 1013.5
20260831204442 80 224 6.1 7.8 0.00 0.00 0.00 74 1013.9
20260831203936 78 256 7.0 9.6 0.00 0.00 0.00 76 1013.9
20260831203435 78 272 7.8 8.7 0.00 0.00 0.00 77 1013.9
20260831202933 78 265 8.7 9.6 0.00 0.00 0.00 77 1013.9
20260831202429 78 180 4.3 9.6 0.00 0.00 0.00 78 1013.9
20260831201923 78 200 6.1 7.8 0.00 0.00 0.00 76 1014.2
20260831201422 78 245 6.1 9.6 0.00 0.00 0.00 77 1013.9
20260831200919 78 254 7.0 8.7 0.00 0.00 0.00 76 1014.2
20260831200414 79 203 6.1 7.0 0.00 0.00 0.00 75 1014.2
20260831195913 79 243 5.2 7.0 0.00 0.00 0.00 75 1014.2
20260831195409 77 229 4.3 7.0 0.00 0.00 0.00 77 1014.2
20260831194904 79 172 0.0 0.0 0.00 0.00 0.00 75 1014.2
20260831194359 78 219 4.3 5.2 0.00 0.00 0.00 76 1014.2
20260831193859 78 245 2.6 4.3 0.00 0.00 0.00 76 1014.6
20260831193354 79 257 5.2 7.0 0.00 0.00 0.00 75 1014.2
20260831192849 79 245 5.2 7.0 0.00 0.00 0.00 76 1014.6
20260831192344 79 262 6.1 7.0 0.00 0.00 0.00 74 1014.6
20260831191840 78 237 6.1 7.0 0.00 0.00 0.00 76 1014.2
20260831191336 79 241 4.3 7.0 0.00 0.00 0.00 75 1014.6
20260831190832 79 254 3.5 4.3 0.00 0.00 0.00 75 1014.6
20260831190331 79 265 6.1 7.8 0.00 0.00 0.00 74 1014.6
20260831185831 78 237 3.5 6.1 0.00 0.00 0.00 77 1014.2
20260831185326 79 232 3.5 5.2 0.00 0.00 0.00 75 1014.6
20260831184825 78 260 5.2 6.1 0.00 0.00 0.00 77 1014.2
20260831184321 78 247 5.2 7.0 0.00 0.00 0.00 78 1014.2
20260831183816 78 226 3.5 4.3 0.00 0.00 0.00 77 1014.2
20260831183315 79 246 3.5 5.2 0.00 0.00 0.00 75 1014.2
20260831182815 79 239 5.2 7.8 0.00 0.00 0.00 75 1014.6
20260831182310 80 278 7.0 8.7 0.00 0.00 0.00 74 1014.2
20260831181805 80 140 3.5 4.3 0.00 0.00 0.00 75 1014.6
20260831181300 79 130 1.7 1.7 0.00 0.00 0.00 76 1014.6
20260831180755 79 233 4.3 6.1 0.00 0.00 0.00 75 1014.6
20260831180250 79 359 0.0 0.0 0.00 0.00 0.00 75 1014.6
20260831175748 79 356 0.0 0.0 0.00 0.00 0.00 75 1014.2
20260831175240 79 138 1.7 1.7 0.00 0.00 0.00 75 1014.2
20260831174735 79 75 0.0 0.0 0.00 0.00 0.00 75 1014.2
20260831174231 79 128 0.0 0.0 0.00 0.00 0.00 76 1014.2
20260831173729 78 100 0.0 0.9 0.00 0.00 0.00 76 1014.6
20260831173229 78 138 2.6 2.6 0.00 0.00 0.00 76 1014.6
20260831172725 79 86 0.0 0.0 0.00 0.00 0.00 74 1014.6
20260831172220 78 255 0.0 0.0 0.00 0.00 0.00 76 1014.6
20260831171714 77 100 0.0 0.0 0.00 0.00 0.00 77 1014.6
20260831171212 78 216 0.0 0.0 0.00 0.00 0.00 78 1014.6
20260831170708 78 121 2.6 4.3 0.00 0.00 0.00 77 1014.9
20260831170205 76 80 0.9 1.7 0.00 0.00 0.00 80 1014.6
20260831165700 76 131 2.6 2.6 0.00 0.00 0.00 80 1014.6
20260831165156 75 67 0.9 1.7 0.00 0.00 0.00 82 1014.2
20260831164652 75 30 0.9 1.7 0.00 0.00 0.00 82 1014.6
20260831164148 75 152 2.6 2.6 0.00 0.00 0.00 81 1014.2
20260831163643 75 125 1.7 1.7 0.00 0.00 0.00 81 1013.9
20260831163139 75 149 0.0 0.0 0.00 0.00 0.00 83 1014.2
20260831162638 75 117 0.0 0.0 0.00 0.00 0.00 83 1014.2
20260831162135 75 147 0.0 0.0 0.00 0.00 0.00 82 1013.9
20260831161631 77 118 0.0 0.0 0.00 0.00 0.00 80 1013.9
20260831161128 76 66 0.0 0.0 0.00 0.00 0.00 80 1014.2
20260831160627 74 51 0.0 0.0 0.00 0.00 0.00 83 1014.2
20260831160123 75 93 0.0 0.0 0.00 0.00 0.00 83 1013.9
20260831155617 73 57 0.0 0.0 0.00 0.00 0.00 86 1013.9
20260831155112 73 158 0.0 0.0 0.00 0.00 0.00 87 1013.9
20260831154608 73 157 0.0 0.0 0.00 0.00 0.00 87 1014.2
20260831154108 72 113 0.0 0.0 0.00 0.00 0.00 88 1014.2
20260831153607 72 45 0.0 0.0 0.00 0.00 0.00 88 1013.9
20260831153104 72 77 0.0 0.0 0.00 0.00 0.00 88 1014.2
20260831152559 72 53 0.0 0.0 0.00 0.00 0.00 89 1013.9
20260831152049 71 53 0.0 0.0 0.00 0.00 0.00 89 1013.9
20260831151548 72 64 0.0 0.0 0.00 0.00 0.00 90 1013.9
20260831151048 71 66 0.0 0.0 0.00 0.00 0.00 90 1013.9
20260831150538 71 70 0.0 0.0 0.00 0.00 0.00 90 1013.9
20260831150034 71 72 0.0 0.0 0.00 0.00 0.00 90 1013.9
20260831145528 70 73 0.0 0.0 0.00 0.00 0.00 91 1013.9
20260831145025 70 72 0.0 0.0 0.00 0.00 0.00 91 1013.9
20260831144520 69 73 0.0 0.0 0.00 0.00 0.00 91 1013.9
20260831144015 69 64 0.0 0.0 0.00 0.00 0.00 92 1013.5
20260831143510 68 63 0.0 0.0 0.00 0.00 0.00 93 1013.5
20260831143005 68 45 0.0 0.0 0.00 0.00 0.00 95 1013.5
20260831142502 67 23 0.0 0.0 0.00 0.00 0.00 96 1013.5
20260831141956 67 18 0.0 0.0 0.00 0.00 0.00 96 1013.2
20260831141455 67 17 0.0 0.0 0.00 0.00 0.00 97 1013.2
20260831140950 67 17 0.0 0.0 0.00 0.00 0.00 97 1013.5
20260831140445 66 16 0.0 0.0 0.00 0.00 0.00 97 1013.5
20260831135944 66 7 0.0 0.0 0.00 0.00 0.00 97 1013.2
20260831135443 66 2 0.0 0.0 0.00 0.00 0.00 98 1013.2
20260831134938 65 2 0.0 0.0 0.00 0.00 0.00 98 1013.2
20260831134434 66 1 0.0 0.0 0.00 0.00 0.00 98 1012.9
20260831133929 65 359 0.0 0.0 0.00 0.00 0.00 98 1012.9
20260831133429 66 358 0.0 0.0 0.00 0.00 0.00 98 1012.9
20260831132924 65 357 0.0 0.0 0.00 0.00 0.00 98 1012.9
20260831132419 66 357 0.0 0.0 0.00 0.00 0.00 98 1012.9
20260831131918 66 357 0.0 0.0 0.00 0.00 0.00 98 1012.9
20260831131414 66 356 0.0 0.0 0.00 0.00 0.00 97 1012.9
20260831130909 66 355 0.0 0.0 0.00 0.00 0.00 97 1012.9
20260831130405 66 355 0.0 0.0 0.00 0.00 0.00 97 1012.9
20260831125904 66 355 0.0 0.0 0.00 0.00 0.00 97 1012.9
20260831125359 66 354 0.0 0.0 0.00 0.00 0.00 97 1012.5
20260831124854 66 353 0.0 0.0 0.00 0.00 0.00 97 1012.9
20260831124350 66 350 0.0 0.0 0.00 0.00 0.00 97 1012.5
20260831123845 66 349 0.0 0.0 0.00 0.00 0.00 97 1012.5
20260831123344 66 349 0.0 0.0 0.00 0.00 0.00 96 1012.5
20260831122839 66 349 0.0 0.0 0.00 0.00 0.00 96 1012.5
20260831122334 66 349 0.0 0.0 0.00 0.00 0.00 96 1012.9
20260831121828 66 349 0.0 0.0 0.00 0.00 0.00 96 1012.5
20260831121325 67 349 0.0 0.0 0.00 0.00 0.00 96 1012.5
20260831120820 67 349 0.0 0.0 0.00 0.00 0.00 96 1012.5
20260831120314 67 349 0.0 0.0 0.00 0.00 0.00 96 1012.5
20260831115809 67 348 0.0 0.0 0.00 0.00 0.00 96 1012.5
20260831115306 67 348 0.0 0.0 0.00 0.00 0.00 95 1012.9
20260831114804 67 348 0.0 0.0 0.00 0.00 0.00 95 1012.5
20260831114259 67 348 0.0 0.0 0.00 0.00 0.00 95 1012.5
20260831113754 68 348 0.0 0.0 0.00 0.00 0.00 95 1012.5
20260831113254 68 347 0.0 0.0 0.00 0.00 0.00 95 1012.5
20260831112753 68 347 0.0 0.0 0.00 0.00 0.00 95 1012.9
20260831112243 68 347 0.0 0.0 0.00 0.00 0.00 94 1012.9
20260831111739 68 347 0.0 0.0 0.00 0.00 0.00 94 1012.5
20260831111235 68 347 0.0 0.0 0.00 0.00 0.00 94 1012.5
20260831110730 68 346 0.0 0.0 0.00 0.00 0.00 94 1012.9
20260831110225 68 346 0.0 0.0 0.00 0.00 0.00 94 1012.5
20260831105724 69 345 0.0 0.0 0.00 0.00 0.00 94 1012.5
20260831105220 69 344 0.0 0.0 0.00 0.00 0.00 93 1012.9
20260831104714 69 344 0.0 0.0 0.00 0.00 0.00 93 1012.9
20260831104211 68 343 0.0 0.0 0.00 0.00 0.00 93 1012.5
20260831103711 68 340 0.0 0.0 0.00 0.00 0.00 92 1012.5
20260831103207 68 336 0.0 0.0 0.00 0.00 0.00 92 1012.9
20260831102706 68 332 0.0 0.0 0.00 0.00 0.00 91 1012.5
20260831102201 69 317 0.0 0.0 0.00 0.00 0.00 91 1012.5
20260831101656 69 304 0.0 0.0 0.00 0.00 0.00 91 1012.9
20260831101152 69 289 0.0 0.0 0.00 0.00 0.00 91 1012.5
20260831100648 69 258 0.0 0.0 0.00 0.00 0.00 91 1012.9
20260831100144 69 254 0.0 0.0 0.00 0.00 0.00 91 1012.5
20260831095642 69 254 0.0 0.0 0.00 0.00 0.00 90 1012.5
20260831095137 69 252 0.0 0.0 0.00 0.00 0.00 90 1012.5
20260831094632 69 243 0.0 0.0 0.00 0.00 0.00 89 1012.5
20260831094129 69 254 0.0 0.0 0.00 0.00 0.00 89 1012.5
20260831093624 69 253 0.0 0.0 0.00 0.00 0.00 89 1012.9
20260831093120 69 249 0.0 0.0 0.00 0.00 0.00 89 1012.5
20260831092616 69 246 0.0 0.0 0.00 0.00 0.00 89 1012.5
20260831092111 69 243 0.0 0.0 0.00 0.00 0.00 89 1012.5
20260831091611 69 244 0.0 0.0 0.00 0.00 0.00 89 1012.5
20260831091107 69 249 0.0 0.0 0.00 0.00 0.00 89 1012.5
20260831090602 69 248 0.0 0.0 0.00 0.00 0.00 89 1012.9
20260831090058 69 249 0.0 0.0 0.00 0.00 0.00 89 1012.2
20260831085553 69 239 0.0 0.0 0.00 0.00 0.00 89 1012.5
20260831085048 69 246 0.0 0.0 0.00 0.00 0.00 89 1012.5
20260831084544 69 248 0.0 0.0 0.00 0.00 0.00 88 1012.9
20260831084040 70 239 0.0 0.0 0.00 0.00 0.00 88 1012.5
20260831083536 70 239 0.0 0.0 0.00 0.00 0.00 88 1012.5
20260831083036 70 248 0.0 0.0 0.00 0.00 0.00 87 1012.9
20260831082529 70 239 0.0 0.0 0.00 0.00 0.00 87 1012.9
20260831082025 70 242 0.0 0.0 0.00 0.00 0.00 86 1012.9
20260831081521 71 242 0.0 0.0 0.00 0.00 0.00 85 1012.9
20260831081017 71 252 0.0 0.0 0.00 0.00 0.00 84 1012.9
20260831080516 71 252 0.0 0.0 0.00 0.00 0.00 83 1012.9
20260831080012 71 244 0.0 0.0 0.00 0.00 0.00 80 1012.9
20260831075507 71 236 0.0 0.0 0.00 0.00 0.00 79 1012.9
20260831075002 71 209 0.0 0.0 0.00 0.00 0.00 77 1012.9
20260831074457 71 233 0.0 0.0 0.00 0.00 0.00 77 1012.9
20260831073956 71 212 0.0 0.0 0.00 0.00 0.00 77 1012.5
20260831073456 71 224 0.0 0.0 0.00 0.00 0.00 79 1012.5
20260831072955 71 237 0.0 0.0 0.00 0.00 0.00 80 1012.5
20260831072452 71 221 0.0 0.0 0.00 0.00 0.00 79 1012.5
20260831071948 71 101 0.0 0.0 0.00 0.00 0.00 79 1012.9
20260831071446 71 123 0.0 0.0 0.00 0.00 0.00 79 1012.9
20260831070941 71 141 0.0 0.0 0.00 0.00 0.00 80 1012.5
20260831070435 71 163 0.0 0.0 0.00 0.00 0.00 81 1012.5
20260831065934 71 208 0.0 0.0 0.00 0.00 0.00 82 1012.5
20260831065432 71 213 0.0 0.0 0.00 0.00 0.00 84 1012.2
20260831064927 71 235 0.0 0.0 0.00 0.00 0.00 85 1012.5
20260831064422 72 249 0.0 0.0 0.00 0.00 0.00 85 1012.5
20260831063918 72 229 0.0 0.0 0.00 0.00 0.00 84 1012.2
20260831063413 72 240 0.0 0.0 0.00 0.00 0.00 83 1012.2
20260831062908 72 214 0.0 0.0 0.00 0.00 0.00 82 1012.5
20260831062403 71 227 0.0 0.0 0.00 0.00 0.00 83 1012.5
20260831061901 71 155 0.0 0.0 0.00 0.00 0.00 84 1012.2
20260831061401 71 178 0.0 0.0 0.00 0.00 0.00 85 1012.5
20260831060857 70 233 0.0 0.0 0.00 0.00 0.00 87 1012.2
20260831060352 71 301 0.0 0.0 0.00 0.00 0.00 90 1012.2
20260831055852 71 282 0.0 0.0 0.00 0.00 0.00 92 1012.5
20260831055346 71 308 0.0 0.0 0.00 0.00 0.00 93 1012.2
20260831054842 71 303 0.0 0.0 0.00 0.00 0.00 94 1012.2
20260831054337 71 298 0.0 0.0 0.00 0.00 0.00 94 1012.5
20260831053836 71 281 0.0 0.0 0.00 0.00 0.00 94 1012.2
20260831053335 71 256 0.0 0.0 0.00 0.00 0.00 94 1012.2
20260831052829 71 225 0.0 0.0 0.00 0.00 0.00 94 1012.5
20260831052328 72 178 0.0 0.0 0.00 0.00 0.00 93 1012.5
20260831051827 72 224 0.0 0.0 0.00 0.00 0.00 93 1012.5
20260831051326 72 209 0.0 0.0 0.00 0.00 0.00 92 1012.2
20260831050821 72 154 0.0 0.0 0.00 0.00 0.00 91 1012.5
20260831050320 72 231 0.0 0.0 0.00 0.00 0.00 91 1012.2
20260831045814 72 202 0.0 0.0 0.00 0.00 0.00 90 1012.2
20260831045314 72 234 0.0 0.0 0.00 0.00 0.00 90 1012.5
20260831044809 72 161 0.0 0.0 0.00 0.00 0.00 90 1012.2
20260831044304 72 157 0.0 0.0 0.00 0.00 0.00 90 1012.2
20260831043800 72 233 0.0 0.0 0.00 0.00 0.00 90 1012.2
20260831043254 72 210 0.0 0.0 0.00 0.00 0.00 89 1012.2
20260831042749 72 199 0.0 0.0 0.00 0.00 0.00 89 1012.2
20260831042243 72 240 0.0 0.0 0.00 0.00 0.00 89 1012.2
20260831041738 72 243 0.0 0.0 0.00 0.00 0.00 89 1012.2
20260831041238 72 274 0.0 0.0 0.00 0.00 0.00 89 1011.8
20260831040733 72 242 0.0 0.0 0.00 0.00 0.00 89 1012.2
20260831040232 72 236 0.0 0.0 0.00 0.00 0.00 89 1011.8
20260831035731 72 227 0.0 0.0 0.00 0.00 0.00 89 1011.8
20260831035230 72 251 0.0 0.0 0.00 0.00 0.00 89 1011.5
20260831034729 72 242 0.0 0.0 0.00 0.00 0.00 89 1011.5
20260831034225 72 228 0.0 0.0 0.00 0.00 0.00 89 1011.8
20260831033720 72 218 0.0 0.0 0.00 0.00 0.00 89 1011.5
20260831033220 73 239 0.0 0.0 0.00 0.00 0.00 88 1011.5
20260831032715 73 241 0.0 0.0 0.00 0.00 0.00 87 1011.5
20260831032210 73 226 0.0 0.0 0.00 0.00 0.00 87 1011.2
20260831031711 73 258 3.5 6.1 0.00 0.00 0.00 86 1011.2
20260831031205 73 257 2.6 2.6 0.00 0.00 0.00 85 1011.2
20260831030704 73 195 0.0 0.9 0.00 0.00 0.00 83 1010.8
20260831030203 73 225 4.3 5.2 0.00 0.00 0.00 82 1011.2
20260831025702 73 216 3.5 5.2 0.00 0.00 0.00 81 1010.8
20260831025156 73 179 3.5 4.3 0.00 0.00 0.00 79 1011.2
20260831024653 73 236 0.0 0.0 0.00 0.00 0.00 78 1011.2
20260831024151 73 259 0.0 0.9 0.00 0.00 0.00 79 1011.2
20260831023649 73 283 0.0 0.0 0.00 0.00 0.00 80 1011.2
20260831023143 73 236 4.3 5.2 0.00 0.00 0.00 79 1011.2
20260831022639 73 251 5.2 7.0 0.00 0.00 0.00 78 1011.2
20260831022134 73 235 7.0 8.7 0.00 0.00 0.00 78 1011.2
20260831021633 73 238 3.5 4.3 0.00 0.00 0.00 79 1011.2
20260831021128 73 241 4.3 6.1 0.00 0.00 0.00 80 1010.8
20260831020624 73 216 6.1 7.8 0.00 0.00 0.00 81 1011.2
20260831020118 73 234 0.9 4.3 0.00 0.00 0.00 83 1010.8
20260831015614 73 223 4.3 7.0 0.00 0.00 0.00 83 1011.2
20260831015108 74 261 7.0 8.7 0.00 0.00 0.00 84 1011.2
20260831014603 74 243 5.2 6.1 0.00 0.00 0.00 84 1010.8
20260831014059 74 238 4.3 6.1 0.00 0.00 0.00 84 1010.8
20260831013555 74 258 10.4 12.2 0.00 0.00 0.00 85 1011.2
20260831013054 74 149 4.3 5.2 0.00 0.00 0.00 86 1011.2
20260831012549 75 190 4.3 6.1 0.00 0.00 0.00 85 1010.8
20260831012044 75 227 8.7 9.6 0.00 0.00 0.00 85 1010.8
20260831011543 75 257 7.8 11.3 0.00 0.00 0.00 86 1011.2
20260831011039 75 218 7.0 8.7 0.00 0.00 0.00 86 1010.8
20260831010534 75 268 7.0 9.6 0.00 0.00 0.00 86 1010.8
20260831010030 75 195 6.1 8.7 0.00 0.00 0.00 86 1010.8
20260831005525 76 194 6.1 7.8 0.00 0.00 0.00 87 1011.2
20260831005024 76 253 6.1 7.8 0.00 0.00 0.00 85 1011.2
20260831004521 77 228 5.2 6.1 0.00 0.00 0.00 84 1010.8
20260831004016 76 237 6.1 7.8 0.00 0.00 0.00 85 1011.2
20260831003513 76 260 1.7 4.3 0.00 0.00 0.00 85 1010.8
20260831003008 77 168 6.1 7.0 0.00 0.00 0.00 85 1010.8
20260831002506 77 246 5.2 7.0 0.00 0.00 0.00 86 1010.8
20260831002001 77 219 6.1 8.7 0.00 0.00 0.00 86 1010.5
20260831001456 77 235 6.1 7.8 0.00 0.00 0.00 86 1010.5
20260831000953 78 227 7.8 8.7 0.00 0.00 0.00 86 1010.8
20260831000449 78 219 10.4 13.9 0.00 0.00 0.00 84 1010.5
20260830235947 78 252 7.8 9.6 0.00 0.00 0.00 84 1010.8
20260830235443 79 159 6.1 8.7 0.00 0.00 0.00 82 1010.5
20260830234938 79 230 6.1 7.8 0.00 0.00 0.00 83 1010.5
20260830234433 78 261 12.2 13.9 0.00 0.00 0.00 83 1010.5
20260830233928 80 238 6.1 9.6 0.00 0.00 0.00 82 1010.8
20260830233424 80 235 7.0 13.0 0.00 0.00 0.00 80 1010.8
20260830232919 80 238 7.0 8.7 0.00 0.00 0.00 81 1010.8
20260830232415 80 200 5.2 11.3 0.00 0.00 0.00 80 1010.8
20260830231912 80 210 1.7 2.6 0.00 0.00 0.00 81 1010.8
20260830231406 79 252 10.4 12.2 0.00 0.00 0.00 82 1010.8
20260830230906 79 261 7.0 8.7 0.00 0.00 0.00 82 1011.2
20260830230402 80 237 6.1 12.2 0.00 0.00 0.00 81 1010.8
20260830225900 80 160 5.2 7.8 0.00 0.00 0.00 80 1011.2